Lubbock, TX

7:16 PM CDT on July 25, 2017 (GMT -0500)
Lubbock International

Weather History for KLBB - September, 2012

Change the Weather History Date:

Monday, September 24, 2012

  Actual Average Record
Temperature  
Mean Temperature 78 °F 69 °F  
Max Temperature 89 °F 82 °F 97 °F (1953)
Min Temperature 66 °F 56 °F 38 °F (1989)
Degree Days  
Heating Degree Days 0 1  
Month to date heating degree days 17 11  
Since 1 July heating degree days 17 11  
Cooling Degree Days 13 5  
Month to date cooling degree days 230 196  
Year to date cooling degree days 2212 1722  
Growing Degree Days 28 (Base 50)    
Moisture  
Dew Point 49 °F    
Average Humidity 42    
Maximum Humidity 63    
Minimum Humidity 20    
Precipitation  
Precipitation 0.00 in 0.09 in 2.72 in (2014)
Month to date precipitation 1.19 2.06  
Year to date precipitation 9.61 15.13  
Snow  
Snow 0.00 in 0.00 in 0.00 in (2002)
Month to date snowfall 0.0 0.0  
Since 1 July snowfall 0.0 0.0  
Since 1 September snowfall 0.0 0.0  
Snow Depth 0.00 in    
Sea Level Pressure  
Sea Level Pressure 29.94 in    
Wind  
Wind Speed 15 mph (SSW)    
Max Wind Speed 23 mph    
Max Gust Speed 32 mph    
Visibility 10 miles    
Events      
T = Trace of Precipitation, MM = Missing Value Source: NWS Daily Summary

Daily Weather History Graph

Daily Weather History Graph

Search for Another Location

Airport or City:

Trip Planner

Search our weather history database for the weather conditions in past years. The results will help you decide how hot, cold, wet, or windy it might be!

Date:

Astronomy

Sep. 24, 2012 Rise Set
Actual Time 7:37 AM CDT 7:40 PM CDT
Civil Twilight 7:12 AM CDT 8:05 PM CDT
Nautical Twilight 6:43 AM CDT 8:34 PM CDT
Astronomical Twilight 6:14 AM CDT 9:03 PM CDT
Moon 4:15 PM CDT (9/24) 2:09 AM CDT (9/24)
Length of Visible Light 12h 53m
Length of Day
12h 03m
Waxing Gibbous, 71% of the Moon is Illuminated
Sep 24
Waxing Gibbous
Sep 29
Full
Oct 8
Last Quarter
Oct 15
New
Oct 21
First Quarter

Hourly Weather History & Observations

Time (CDT) Temp. Heat Index Dew Point Humidity Pressure Visibility Wind Dir Wind Speed Gust Speed Precip Events Conditions
12:53 AM 71.1 °F - 48.0 °F 44% 30.03 in 10.0 mi SSW 9.2 mph - N/A   Partly Cloudy
1:53 AM 72.0 °F - 46.9 °F 41% 30.01 in 10.0 mi SSW 11.5 mph - N/A   Partly Cloudy
2:53 AM 71.6 °F - 48.2 °F 43% 30.16 in 10.0 mi SSW 12.7 mph - N/A   Partly Cloudy
3:53 AM 71.1 °F - 48.9 °F 45% 29.99 in 10.0 mi SSW 13.8 mph - N/A   Partly Cloudy
4:53 AM 69.1 °F - 51.1 °F 53% 29.99 in 10.0 mi SW 13.8 mph 23.0 mph N/A   Partly Cloudy
5:53 AM 69.1 °F - 52.0 °F 54% 29.99 in 10.0 mi SSW 13.8 mph - N/A   Scattered Clouds
6:53 AM 68.0 °F - 53.1 °F 59% 29.99 in 10.0 mi SSW 16.1 mph 24.2 mph N/A   Scattered Clouds
7:53 AM 66.9 °F - 54.0 °F 63% 30.01 in 10.0 mi SSW 13.8 mph - N/A   Mostly Cloudy
8:53 AM 68.0 °F - 55.9 °F 65% 30.02 in 10.0 mi SSW 13.8 mph - N/A   Overcast
9:53 AM 72.0 °F - 57.9 °F 61% 30.02 in 10.0 mi SSW 19.6 mph 26.5 mph N/A   Clear
10:53 AM 75.9 °F - 57.0 °F 52% 30.01 in 10.0 mi SSW 21.9 mph 26.5 mph N/A   Mostly Cloudy
11:53 AM 80.1 °F 80.4 °F 57.0 °F 45% 29.99 in 10.0 mi SSW 17.3 mph 26.5 mph N/A   Mostly Cloudy
12:53 PM 82.9 °F 82.4 °F 57.0 °F 41% 29.96 in 10.0 mi South 18.4 mph 24.2 mph N/A   Mostly Cloudy
1:53 PM 84.2 °F - 51.8 °F 33% 30.07 in 10.0 mi SSW 15.0 mph - N/A   Mostly Cloudy
2:53 PM 86.0 °F - 46.9 °F 26% 29.87 in 10.0 mi SSW 15.0 mph 24.2 mph N/A   Mostly Cloudy
3:53 PM 88.0 °F - 44.1 °F 22% 29.84 in 10.0 mi South 17.3 mph 27.6 mph N/A   Mostly Cloudy
4:53 PM 86.0 °F - 42.1 °F 21% 29.83 in 10.0 mi SSW 16.1 mph 24.2 mph N/A   Overcast
5:53 PM 86.0 °F - 41.0 °F 20% 29.82 in 10.0 mi South 15.0 mph 23.0 mph N/A   Overcast
6:53 PM 84.9 °F - 39.0 °F 20% 29.82 in 10.0 mi SSW 17.3 mph - N/A   Overcast
7:53 PM 81.0 °F - 41.0 °F 24% 29.83 in 10.0 mi South 10.4 mph - N/A   Mostly Cloudy
8:53 PM 78.1 °F - 41.0 °F 27% 29.83 in 10.0 mi South 10.4 mph - N/A   Mostly Cloudy
9:53 PM 77.0 °F - 42.1 °F 29% 29.83 in 10.0 mi South 15.0 mph - N/A   Mostly Cloudy
10:53 PM 77.0 °F - 48.0 °F 36% 29.82 in 10.0 mi South 16.1 mph - N/A   Mostly Cloudy
11:53 PM 73.9 °F - 48.0 °F 40% 29.82 in 10.0 mi South 17.3 mph - N/A   Mostly Cloudy